[[{"header":{"parameterUnit":"m.s-1","parameterCategory":1,"la1":30.2991,"la2":30.254,"lo1":-89.0895,"lo2":-89.0444,"dy":0.0017,"dx":0.0017,"nx":28,"ny":28,"refTime":"2024-04-29T21:00:00:Z","depth":0,"parameterNumber":2,"parameterNumberName":"U-component_of_WINDS"},"data":[0,0,0,0,0,0,0,0,0,0,0,0,0,0,0,0,0,0,0,0,0,0,0,0,0,0,0,0,0,0,0,0,0,0,0,0,0,0,0,0,0,0,0,0,0,0,0,0,0,0,0,0,0,0,0,0,0,0,-1.0123,-1.0122,0,-1.003,-1.0029,-1.0027,-0.9977,-0.9977,-0.9977,-0.9977,-0.9876,-0.9873,-0.987,0,0,0,0,0,0,0,0,0,0,0,0,0,-1.0254,-1.0252,-1.0123,-1.0122,-1.0121,-1.003,-1.0029,-1.0027,-0.9977,-0.9977,-0.9977,-0.9977,-0.9876,-0.9873,-0.987,0,0,0,0,0,0,0,0,0,0,0,0,0,-1.0182,-1.0251,-1.0124,-1.0085,-1.0081,-1.003,-1.0028,-1.0027,-0.9977,-0.9977,-0.9977,-0.9977,-0.9877,-0.9874,-0.987,-0.9849,0,0,-0.9858,-0.9856,0,0,0,0,0,0,0,0,-1.0186,-1.0177,-1.0092,-1.0088,-1.0083,-1.0015,-1.0037,-0.9967,-0.9977,-1.0016,-0.9977,-0.9976,-0.9922,-0.9914,-0.9897,-0.9844,-0.984,-0.9858,-0.9855,-0.9853,-0.9852,0,0,0,0,0,0,0,-1.0191,-1.0181,-1.0086,-1.0091,-1.0085,-1.0071,-1.0061,-1.0024,-0.9971,-1.0013,-1.0009,-0.9999,-0.9919,-0.9901,-0.9894,-0.9838,-0.9858,-0.9854,-0.9852,-0.985,-0.9762,-0.9762,0,0,0,0,0,0,-1.0203,-1.0186,-1.0089,-1.0083,-1.0135,-1.0069,-1.0057,-1.0037,-0.9971,-0.9961,-0.9999,-0.9997,-0.9907,-0.9899,-0.989,-0.986,-0.9854,-0.985,-0.9848,-0.9762,-0.9762,-0.9762,0,0,0,0,0,0,-1.0206,-1.0195,-1.0093,-1.0133,-1.0119,-1.0067,-1.0044,-1.0035,-1.0016,-0.9961,-0.995,-0.999,-0.9907,-0.9896,-0.986,-0.9856,-0.9848,-0.9845,-0.9762,-0.9762,-0.9762,-0.9801,0,0,0,0,0,0,-1.021,-1.0196,-1.0189,-1.0134,-1.0117,-1.0065,-1.0044,-1.0033,-1.0011,-1.0007,-0.995,-0.994,-0.9906,-0.9866,-0.9856,-0.9851,-0.9842,-0.9762,-0.9762,-0.9762,-0.98,-0.9803,-0.9805,0,0,0,0,0,-1.0215,-1.0203,-1.0189,-1.0178,-1.0107,-1.0065,-1.0056,-1.0018,-1.0011,-1.0002,-0.9966,-0.9942,-0.9859,-0.9862,-0.9851,-0.9845,-0.9762,-0.9762,-0.9762,-0.9799,-0.9802,-0.9805,0,0,0,0,0,0,-1.0257,-1.0195,-1.0179,-1.0149,-1.0113,-1.0057,-1.0045,-1.0023,-0.9987,-0.9985,-0.9938,-0.9926,-0.9894,-0.9865,-0.9871,-0.982,-0.9808,-0.9805,-0.984,-0.9842,-0.9845,-0.9851,-0.9838,0,0,0,0,0,-1.0264,-1.0236,-1.0183,-1.0161,-1.0144,-1.0098,-1.0078,-1.0052,-1.0013,-0.9997,-0.9958,-0.9919,-0.9884,-0.9862,-0.9826,-0.9796,-0.9782,-0.9786,-0.9788,-0.9791,-0.9789,-0.977,-0.977,-0.9762,-0.9762,-0.9762,0,0,-1.0275,-1.0238,-1.0223,-1.0169,-1.0138,-1.0109,-1.0085,-1.0056,-1.0033,-0.9992,-0.9955,-0.9926,-0.9879,-0.9846,-0.9829,-0.9821,-0.9788,-0.9791,-0.9793,-0.979,-0.977,-0.9771,-0.9771,-0.9762,-0.9762,-0.9762,0,0,-1.0282,-1.0252,-1.023,-1.02,-1.0155,-1.0124,-1.0119,-1.0066,-1.0045,-1.0009,-0.9977,-0.9949,-0.9889,-0.9857,-0.9833,-0.9828,-0.9804,-0.9818,-0.983,-0.9812,-0.9813,-0.9813,-0.981,-0.981,-0.9816,-0.9817,-0.9817,0,-1.0302,-1.0259,-1.0221,-1.0194,-1.017,-1.0133,-1.011,-1.0082,-1.0027,-1.0011,-1.0003,-0.9928,-0.9894,-0.9852,-0.9851,-0.9833,-0.9825,-0.9824,-0.9816,-0.9816,-0.9815,-0.9812,-0.9811,-0.9818,-0.9818,-0.9818,-0.9818,0,-1.0285,-1.0256,-1.0243,-1.0193,-1.0168,-1.0143,-1.01,-1.0079,-1.0055,-1.0025,-0.9987,-0.9946,-0.9901,-0.9889,-0.9865,-0.9844,-0.984,-0.9825,-0.9811,-0.9819,-0.9815,-0.9813,-0.9821,-0.982,-0.982,-0.9819,0,0,-1.0315,-1.0244,-1.024,-1.0217,-1.0164,-1.0139,-1.0112,-1.007,-1.0052,-1.0015,-0.999,-0.9941,-0.9927,-0.99,-0.9872,-0.9857,-0.9854,-0.9843,-0.9841,-0.9845,-0.9826,-0.9837,-0.9837,-0.9839,-0.9838,-0.9838,-0.983,0,-1.0313,-1.0264,-1.023,-1.0193,-1.0165,-1.0129,-1.0105,-1.0069,-1.004,-1.001,-0.9978,-0.9944,-0.9928,-0.9911,-0.9894,-0.9858,-0.9849,-0.9858,-0.9813,-0.9812,-0.9825,-0.9835,-0.9846,-0.984,-0.9828,-0.9828,-0.9828,0,-1.0304,-1.027,-1.0231,-1.0181,-1.0168,-1.0147,-1.0106,-1.0079,-1.0037,-1.0016,-0.9987,-0.9959,-0.9927,-0.9917,-0.9871,-0.9878,-0.9858,-0.9837,-0.9836,-0.9829,-0.9819,-0.9827,-0.9838,-0.9837,-0.9825,-0.9825,-0.9825,0,-1.0329,-1.0273,-1.0242,-1.0223,-1.0164,-1.015,-1.0125,-1.0083,-1.006,-1.0023,-1.0007,-0.9967,-0.9944,-0.9913,-0.9874,-0.9871,-0.9832,-0.982,-0.9813,-0.9814,-0.9805,-0.9806,-0.9812,-0.9794,-0.9794,-0.9794,-0.9794,0,-1.0329,-1.0307,-1.0252,-1.0233,-1.0207,-1.0167,-1.0141,-1.0112,-1.0075,-1.0049,-1.0015,-0.9991,-0.9942,-0.9911,-0.9881,-0.9847,-0.9837,-0.9819,-0.9811,-0.9821,-0.9823,-0.9806,-0.9805,-0.9794,-0.9794,-0.9794,-0.9794,0,-1.0351,-1.0314,-1.0278,-1.0226,-1.0213,-1.0195,-1.0149,-1.0129,-1.0099,-1.0066,-1.0055,-1.0007,-0.9969,-0.9928,-0.9876,-0.9855,-0.9823,-0.9812,-0.9837,-0.9833,-0.9828,-0.9829,-0.9822,-0.9819,-0.9805,-0.9805,-0.9805,0,-1.0354,-1.0336,-1.0282,-1.0263,-1.0239,-1.0208,-1.0185,-1.0145,-1.0121,-1.0073,-1.0058,-1.0018,-0.9983,-0.9924,-0.9883,-0.9843,-0.983,-0.9831,-0.9824,-0.9835,-0.9829,-0.983,-0.9827,-0.9832,-0.9833,-0.9833,-0.9833,0,-1.0362,-1.0345,-1.0313,-1.0275,-1.0248,-1.0216,-1.0182,-1.0168,-1.0121,-1.0096,-1.0058,-1.0032,-0.9979,-0.9939,-0.9894,-0.9866,-0.9841,-0.9836,-0.9832,-0.9842,-0.9857,-0.9848,-0.9842,-0.9836,-0.9836,-0.9836,-0.9835,-0.9835,-1.0373,-1.0355,-1.0315,-1.028,-1.0251,-1.0221,-1.0199,-1.0166,-1.0134,-1.0089,-1.0067,-1.0029,-0.9987,-0.9924,-0.9897,-0.9865,-0.9857,-0.9852,-0.985,-0.985,-0.9852,-0.9864,-0.9857,-0.9857,-0.9857,-0.9856,-0.9856,0,-1.0378,-1.0351,-1.032,-1.0274,-1.0247,-1.0229,-1.019,-1.0168,-1.0135,-1.0099,-1.0066,-1.0022,-0.9984,-0.994,-0.9899,-0.9882,-0.9869,-0.9872,-0.9872,-0.9866,-0.9862,-0.9869,-0.9883,-0.9883,-0.9883,-0.9883,-0.9883,-0.9883,-1.0378,-1.0346,-1.0324,-1.0278,-1.0249,-1.0213,-1.0193,-1.0164,-1.0134,-1.0087,-1.0055,-1.0028,-0.9988,-0.9944,-0.9907,-0.9895,-0.9881,-0.9887,-0.9871,-0.9868,-0.9866,-0.9864,-0.987,-0.9884,-0.9884,-0.9878,-0.9878,-0.9878]},{"header":{"parameterUnit":"m.s-1","parameterCategory":1,"la1":30.2991,"la2":30.254,"lo1":-89.0895,"lo2":-89.0444,"dy":0.0017,"dx":0.0017,"nx":28,"ny":28,"refTime":"2024-04-29T21:00:00:Z","depth":0,"parameterNumber":3,"parameterNumberName":"V-component_of_WINDS"},"data":[0,0,0,0,0,0,0,0,0,0,0,0,0,0,0,0,0,0,0,0,0,0,0,0,0,0,0,0,0,0,0,0,0,0,0,0,0,0,0,0,0,0,0,0,0,0,0,0,0,0,0,0,0,0,0,0,0,0,2.5969,2.597,0,2.6025,2.6025,2.6026,2.6076,2.6077,2.6077,2.6078,2.6131,2.6132,2.6133,0,0,0,0,0,0,0,0,0,0,0,0,0,2.5903,2.5904,2.5969,2.597,2.5971,2.6025,2.6026,2.6026,2.6076,2.6077,2.6078,2.6078,2.6131,2.6132,2.6133,0,0,0,0,0,0,0,0,0,0,0,0,0,2.5942,2.5904,2.5969,2.6002,2.6006,2.6025,2.6026,2.6026,2.6076,2.6077,2.6078,2.6079,2.613,2.6132,2.6133,2.6122,0,0,2.6137,2.6137,0,0,0,0,0,0,0,0,2.594,2.5945,2.5997,2.6,2.6004,2.6045,2.6022,2.6058,2.6076,2.6049,2.6078,2.6079,2.6101,2.6105,2.6113,2.6125,2.6127,2.6137,2.6138,2.6138,2.6138,0,0,0,0,0,0,0,2.5937,2.5942,2.5991,2.5997,2.6002,2.6013,2.602,2.6029,2.6069,2.6052,2.6055,2.6061,2.6103,2.6112,2.6115,2.6128,2.6137,2.6138,2.6139,2.6139,2.6134,2.6133,0,0,0,0,0,0,2.593,2.594,2.5989,2.5993,2.5974,2.6014,2.6021,2.6031,2.6069,2.6076,2.6061,2.6064,2.6109,2.6113,2.6117,2.6107,2.6138,2.6139,2.614,2.6135,2.6134,2.6133,0,0,0,0,0,0,2.5928,2.5934,2.5987,2.5967,2.5975,2.6014,2.6024,2.6031,2.604,2.6076,2.6083,2.6062,2.611,2.6115,2.6121,2.611,2.614,2.6141,2.6136,2.6135,2.6133,2.6088,0,0,0,0,0,0,2.5926,2.5933,2.593,2.5967,2.5976,2.5991,2.6023,2.6032,2.6042,2.6047,2.608,2.6086,2.6111,2.6119,2.6122,2.6112,2.6142,2.6137,2.6135,2.6134,2.6091,2.6085,2.6081,0,0,0,0,0,2.5923,2.5914,2.593,2.5935,2.5973,2.599,2.5995,2.6026,2.6041,2.6038,2.6062,2.6085,2.6111,2.6119,2.6123,2.6113,2.6138,2.6136,2.6134,2.6093,2.6086,2.6081,0,0,0,0,0,0,2.5873,2.5919,2.5937,2.594,2.5961,2.5999,2.5996,2.6018,2.6034,2.6037,2.6074,2.6081,2.6082,2.6099,2.6107,2.6106,2.6127,2.6126,2.6095,2.6089,2.6084,2.608,2.6143,0,0,0,0,0,2.5862,2.5873,2.5913,2.5911,2.5921,2.5957,2.5965,2.5987,2.601,2.6019,2.6043,2.6063,2.6076,2.6083,2.6097,2.6094,2.6101,2.6089,2.6084,2.608,2.6078,2.6077,2.6072,2.6126,2.6126,2.6126,0,0,2.584,2.5867,2.5871,2.5902,2.5921,2.593,2.5964,2.5972,2.598,2.602,2.6027,2.6045,2.607,2.6071,2.6073,2.6085,2.6065,2.6077,2.6073,2.6074,2.6074,2.6069,2.6065,2.6125,2.6125,2.6125,0,0,2.5804,2.5826,2.5827,2.5846,2.5875,2.5899,2.5899,2.5934,2.5948,2.5956,2.5987,2.5995,2.6017,2.6034,2.6045,2.6016,2.6038,2.602,2.5993,2.5992,2.5988,2.5984,2.5974,2.597,2.6018,2.6018,2.6018,0,2.5772,2.5789,2.5824,2.5831,2.5844,2.5882,2.5883,2.5899,2.5931,2.5938,2.5951,2.598,2.5999,2.6005,2.5998,2.6006,2.6007,2.6016,2.5986,2.5983,2.598,2.597,2.5966,2.6015,2.6016,2.6016,2.6016,0,2.5748,2.5759,2.5757,2.5788,2.58,2.5804,2.5839,2.5846,2.5868,2.589,2.5898,2.5923,2.5943,2.5946,2.5966,2.5954,2.5961,2.598,2.6002,2.5972,2.5963,2.596,2.6012,2.6013,2.6014,2.6014,0,0,2.5681,2.5732,2.5731,2.5745,2.5781,2.579,2.5795,2.5816,2.5822,2.5843,2.5848,2.5866,2.5884,2.5896,2.5919,2.5918,2.5894,2.5937,2.5938,2.5928,2.5882,2.5868,2.5863,2.5909,2.5908,2.5908,2.588,0,2.565,2.5664,2.5696,2.5699,2.571,2.5747,2.5752,2.5774,2.5795,2.5806,2.5829,2.5841,2.5864,2.5872,2.5873,2.5896,2.5885,2.5899,2.5913,2.5913,2.5905,2.5859,2.5843,2.5816,2.5877,2.5877,2.5876,0,2.5616,2.5636,2.5641,2.5677,2.5682,2.5686,2.5708,2.5719,2.5744,2.5759,2.5774,2.58,2.5807,2.5829,2.5838,2.5847,2.5855,2.5867,2.5867,2.5869,2.5892,2.5859,2.5808,2.5803,2.5871,2.5872,2.5872,0,2.5566,2.5594,2.5601,2.5612,2.5654,2.5656,2.5673,2.57,2.571,2.5729,2.5736,2.5755,2.5765,2.5779,2.5808,2.5822,2.5815,2.5839,2.5827,2.5826,2.5823,2.5823,2.5772,2.5829,2.5829,2.5829,2.5829,0,2.5528,2.5529,2.5579,2.5583,2.5585,2.5622,2.5623,2.5643,2.5667,2.5675,2.5708,2.5714,2.5753,2.5764,2.5787,2.5792,2.5796,2.5808,2.5814,2.5805,2.5803,2.581,2.5812,2.5828,2.5828,2.5828,2.5829,0,2.5472,2.5506,2.5515,2.5555,2.5565,2.5564,2.5598,2.5602,2.5626,2.5636,2.564,2.5677,2.5691,2.5722,2.5745,2.576,2.5759,2.577,2.5751,2.5755,2.5741,2.5741,2.5692,2.5687,2.5747,2.5747,2.5746,0,2.5446,2.5448,2.5488,2.5496,2.5513,2.5526,2.5538,2.5574,2.5584,2.5614,2.5615,2.5632,2.5648,2.5669,2.5697,2.5715,2.5726,2.5708,2.5729,2.572,2.5726,2.5725,2.5725,2.5703,2.5702,2.5701,2.5701,0,2.5395,2.5411,2.5428,2.545,2.5463,2.5482,2.5502,2.5507,2.5548,2.5558,2.5574,2.5586,2.561,2.5627,2.5649,2.5666,2.5689,2.5694,2.5692,2.5682,2.5671,2.5677,2.5737,2.5695,2.5695,2.5696,2.5696,2.5696,2.5352,2.5356,2.5386,2.5402,2.5422,2.5441,2.5447,2.5473,2.5487,2.551,2.5531,2.5545,2.5571,2.5603,2.5618,2.5629,2.5641,2.5638,2.5637,2.5636,2.5632,2.567,2.5633,2.5633,2.5634,2.5634,2.5634,0,2.5303,2.5324,2.534,2.5368,2.5381,2.5405,2.5429,2.5438,2.545,2.5473,2.5489,2.5507,2.5524,2.5553,2.5572,2.5575,2.5587,2.5579,2.5579,2.5582,2.562,2.562,2.557,2.557,2.557,2.557,2.557,2.557,2.5279,2.5287,2.5307,2.5325,2.5346,2.5361,2.5373,2.539,2.5408,2.5428,2.5442,2.5462,2.5488,2.5509,2.5525,2.5534,2.5539,2.5527,2.5539,2.5574,2.558,2.5585,2.5585,2.5528,2.5528,2.55,2.55,2.55]}]]